THOR ABLESTAR DEB, 130

Orbit data source: Space-Track

THOR ABLESTAR DEB, 130 is space debris in LEO originally from a launch on Thu, 29 Jun 1961 UTC launched from the Air Force Eastern Test Range (AFETR). Debris objects in space refer to the collection of defunct objects orbiting the Earth. Examples of debris include non-operational satellites, rocket bodies, and fragments generated from explosions, collisions, or faulty payload assembly.

Loading next visibility...
Identifier
130, 1961-015Q
Orbit
LEO
Country
Flag of USUS
Related business
Manufacturer
Unknown
Mission
Spacecraft
Bus & Motor
Unknown
Mass
Unknown
Launch date (UTC)
1961-06-29 (64 years ago)
Launch vehicle
Unknown
Launch site
Air Force Eastern Test Range (AFETR)
Object type
Payload
Rocket body
Debris
Shape & HBR
Unknown shape, 0.5 m
Radar Cross Section
Medium (>0.1 m² and <1 m²)

Expand to show TLE details & history
Last TLE update: 18 hours ago

TLE from 18 hours ago
0 THOR ABLESTAR DEB
1 00130U 61015Q   25310.76248910  .00000107  00000-0  12385-3 0  9995
2 00130  66.7703  83.3577 0078557  85.8537 275.1520 13.99357983280331
Epoch: 2025-11-06T18:17Z
TLE epoch observation values (Epoch: 2025-11-06T18:17:59.058Z)
Latitude
0.00005°
Longitude
122.64549°
Altitude
893.415 km
Speed
7.408 km/s
True Right ascension
05h 33m 25s
True Declination
0° 00' 00"
Sunlit
Object was in full shadow at epoch
Visualization orbit readout
Latitude
Unknown
Longitude
Unknown
Altitude
Unknown
Speed
Unknown
Apparent Right ascension
Unknown
Apparent Declination
Unknown
Sunlit
N/A
Visualization observer readout
Local Sidereal Time
08:36:30
Azimuth
Unknown
Elevation
Unknown
Doppler factor
Unknown
Orbital elements
Apogee altitude
951.54 km
Perigee altitude
837.278 km
Semi-major axis
7,272.546 km
Eccentricity
0.00786
Inclination
66.7703°
RAAN
83.3577°
Arg. of periapsis
85.8537°
True anomaly
274.25469°
Mean anomaly
275.152°
Eccentric anomaly
274.70342°
Mean motion
3.49956 °/min
Orbital period
102.87 mins
BSTAR
0.00012385
Loading maneuver chart data...
Computing Atmospheric mass density...

Documentation

Showing up to 5 results
|